Погода в Жуан-Песоа

Бразилия     7°05′35″S   34°51′02″W
темп.,
°C
ветер,
м/с
пор.,
м/с
влажн.,
%
обл.,
%
осадки,
мм/ч
давл.,
гПа
погр.,
м
27 февраля, сб
сб2700:00+27в457958 1.2 1011523
03:00+26в338043 5.6 1010289
06:00+26вюв237713 2.4 1011416
09:00+27в347211 2.4 1013798
12:00+28в44709 0.0 1011864
15:00+28в55706 0.0 1009847
18:00+27вюв56760 0.0 1009729
21:00+27вюв56791 0.0 1011713
28 февраля, вс
вс2800:00+27в45809 0.4 1010659
03:00+26вюв44799 1.4 1009558
06:00+26вюв457913 0.6 1010625
09:00+27вюв34707 1.5 1011656
12:00+28вюв55701 0.1 1010776
15:00+28вюв56720 0.1 1008957
18:00+27вюв567791 0.2 1009777
21:00+27в457895 0.4 1010627
1 марта, пн
пн100:00+26вюв568095 4.9 1009450
03:00+26вюв347893 9.6 1008322
06:00+26в347736 3.3 1009420
09:00+27в457343 5.3 1010600
12:00+28в66718 1.7 1009849
15:00+28в78758 2.3 1007780
18:00+27вюв798017 4.3 1009673
21:00+27в788053 7.8 1010743
2 марта, вт
вт200:00+27в788243 2.0 1010727
03:00+26в457929 2.1 1009674
06:00+26юв347832 0.1 1010549
09:00+27в557616 1.6 1012689
12:00+27вюв45755 0.4 1011724
15:00+27вюв45755 0.6 1009767
18:00+27в457813 0.1 1011608
21:00+27в56817 0.1 1013666
3 марта, ср
ср300:00+27в56801 0.2 1012675
03:00+26вюв45780 0.2 1011661
06:00+26вюв458215 0.3 1013563
09:00+27вюв567734 0.6 1014805
12:00+28вюв567632 0.2 1013815
15:00+27вюв567723 0.4 1011806
18:00+27юв678221 0.1 1012677
21:00+27юв678315 0.7 1014664